• In Österreich
  • Länderverzeichnis
  • Für 7 Tage
  • Wassertemperatur
  • Satellitenkarten
  • Wetterkarte
  • News
  • Widgets
  • user-avatar
    Anmelden

    Stündliche Wetter Wieniotowo

    Heute, 21 August, Dienstag

    Zeit Temperatur Niederschläge Wind Luftdruck Luftfeuchtigkeit
    00:00 +16°C° 0 mm 6 m/S 761 mmHg 80%
    01:00 +16°C° 0 mm 5 m/S 762 mmHg 82%
    02:00 +15°C° 0 mm 5 m/S 762 mmHg 83%
    03:00 +15°C° 0 mm 5 m/S 762 mmHg 85%
    04:00 +15°C° 0 mm 5 m/S 762 mmHg 86%
    05:00 +15°C° 0 mm 4 m/S 763 mmHg 81%
    06:00 +17°C° 0 mm 4 m/S 763 mmHg 77%
    07:00 +19°C° 0 mm 5 m/S 763 mmHg 71%
    08:00 +19°C° 0 mm 4 m/S 764 mmHg 67%
    09:00 +20°C° 0 mm 4 m/S 764 mmHg 64%
    10:00 +20°C° 0 mm 4 m/S 764 mmHg 60%
    11:00 +21°C° 0 mm 4 m/S 764 mmHg 59%
    12:00 +21°C° 0 mm 4 m/S 764 mmHg 58%
    13:00 +21°C° 0 mm 4 m/S 765 mmHg 57%
    14:00 +21°C° 0 mm 4 m/S 765 mmHg 57%
    15:00 +21°C° 0 mm 3 m/S 765 mmHg 57%
    16:00 +21°C° 0 mm 3 m/S 765 mmHg 57%
    17:00 +20°C° 0 mm 3 m/S 765 mmHg 62%
    18:00 +18°C° 0 mm 2 m/S 765 mmHg 68%
    19:00 +17°C° 0 mm 2 m/S 765 mmHg 74%
    20:00 +16°C° 0 mm 1 m/S 765 mmHg 77%
    21:00 +15°C° 0 mm 1 m/S 765 mmHg 80%
    22:00 +13°C° 0 mm 0 m/S 766 mmHg 83%
    23:00 +14°C° 0 mm 1 m/S 766 mmHg 84%

    Morgen, 22 August, Mittwoch

    Zeit Temperatur Niederschläge Wind Luftdruck Luftfeuchtigkeit
    00:00 +14°C° 0 mm 1 m/S 766 mmHg 85%
    01:00 +14°C° 0 mm 2 m/S 766 mmHg 86%
    02:00 +13°C° 0 mm 2 m/S 766 mmHg 86%
    03:00 +13°C° 0 mm 2 m/S 766 mmHg 87%
    04:00 +12°C° 0 mm 3 m/S 766 mmHg 87%
    05:00 +13°C° 0 mm 3 m/S 766 mmHg 83%
    06:00 +14°C° 0 mm 3 m/S 766 mmHg 79%
    07:00 +16°C° 0 mm 3 m/S 766 mmHg 75%
    08:00 +18°C° 0 mm 3 m/S 766 mmHg 68%
    09:00 +20°C° 0 mm 3 m/S 766 mmHg 60%
    10:00 +22°C° 0 mm 3 m/S 766 mmHg 53%
    11:00 +24°C° 0 mm 2 m/S 765 mmHg 49%
    12:00 +25°C° 0 mm 2 m/S 765 mmHg 45%
    13:00 +26°C° 0 mm 2 m/S 765 mmHg 42%
    14:00 +26°C° 0 mm 2 m/S 764 mmHg 41%
    15:00 +26°C° 0 mm 2 m/S 764 mmHg 41%
    16:00 +26°C° 0 mm 2 m/S 763 mmHg 41%
    17:00 +25°C° 0 mm 2 m/S 763 mmHg 46%
    18:00 +23°C° 0 mm 2 m/S 763 mmHg 52%
    19:00 +20°C° 0 mm 2 m/S 762 mmHg 58%
    20:00 +20°C° 0 mm 3 m/S 762 mmHg 59%
    21:00 +19°C° 0 mm 3 m/S 762 mmHg 60%
    22:00 +18°C° 0 mm 3 m/S 762 mmHg 61%
    23:00 +18°C° 0 mm 4 m/S 762 mmHg 62%

    übermorgen, 23 August, Donnerstag

    Zeit Temperatur Niederschläge Wind Luftdruck Luftfeuchtigkeit
    00:00 +18°C° 0 mm 4 m/S 762 mmHg 63%
    01:00 +17°C° 0 mm 4 m/S 761 mmHg 64%
    02:00 +17°C° 0 mm 4 m/S 761 mmHg 66%
    03:00 +17°C° 0 mm 4 m/S 761 mmHg 68%
    04:00 +17°C° 0 mm 4 m/S 760 mmHg 70%
    05:00 +18°C° 0 mm 4 m/S 760 mmHg 69%
    06:00 +19°C° 0 mm 4 m/S 760 mmHg 68%
    07:00 +20°C° 0 mm 4 m/S 760 mmHg 67%
    08:00 +22°C° 0 mm 4 m/S 760 mmHg 61%
    09:00 +25°C° 0 mm 4 m/S 760 mmHg 56%
    10:00 +27°C° 0 mm 3 m/S 760 mmHg 51%
    11:00 +28°C° 0 mm 3 m/S 759 mmHg 49%
    12:00 +28°C° 0 mm 3 m/S 759 mmHg 48%
    13:00 +29°C° 0 mm 3 m/S 759 mmHg 47%
    14:00 +29°C° 0 mm 2 m/S 758 mmHg 49%
    15:00 +28°C° 0 mm 2 m/S 758 mmHg 51%
    16:00 +28°C° 0 mm 1 m/S 758 mmHg 54%
    17:00 +27°C° 0 mm 2 m/S 757 mmHg 57%
    18:00 +26°C° 0 mm 2 m/S 757 mmHg 60%
    19:00 +25°C° 0 mm 2 m/S 757 mmHg 64%
    20:00 +25°C° 0 mm 2 m/S 757 mmHg 63%
    21:00 +24°C° 0 mm 3 m/S 757 mmHg 63%
    22:00 +24°C° 0 mm 3 m/S 757 mmHg 63%
    23:00 +24°C° 0 mm 3 m/S 756 mmHg 64%

    24 August, Freitag

    Zeit Temperatur Niederschläge Wind Luftdruck Luftfeuchtigkeit
    00:00 +23°C° 0 mm 4 m/S 756 mmHg 65%
    01:00 +23°C° 0 mm 4 m/S 755 mmHg 66%
    02:00 +22°C° 0,3 mm 4 m/S 755 mmHg 71%
    03:00 +21°C° 0,3 mm 4 m/S 755 mmHg 77%
    04:00 +20°C° 0,3 mm 4 m/S 754 mmHg 83%
    05:00 +20°C° 0,2 mm 4 m/S 754 mmHg 82%
    06:00 +21°C° 0,2 mm 4 m/S 754 mmHg 81%
    07:00 +22°C° 0,2 mm 4 m/S 754 mmHg 80%
    08:00 +23°C° 0,2 mm 4 m/S 754 mmHg 76%
    09:00 +25°C° 0,2 mm 4 m/S 754 mmHg 72%
    10:00 +26°C° 0,2 mm 4 m/S 754 mmHg 68%
    11:00 +26°C° 0,6 mm 4 m/S 754 mmHg 69%
    12:00 +26°C° 0,6 mm 4 m/S 754 mmHg 69%
    13:00 +26°C° 0,6 mm 4 m/S 753 mmHg 70%
    14:00 +25°C° 0,5 mm 4 m/S 754 mmHg 72%
    15:00 +23°C° 0,5 mm 5 m/S 754 mmHg 74%
    16:00 +22°C° 0,5 mm 5 m/S 754 mmHg 75%
    17:00 +21°C° 0,1 mm 5 m/S 754 mmHg 78%
    18:00 +20°C° 0,1 mm 4 m/S 754 mmHg 80%
    19:00 +18°C° 0,1 mm 4 m/S 754 mmHg 83%
    20:00 +18°C° 0 mm 4 m/S 754 mmHg 83%
    21:00 +18°C° 0 mm 4 m/S 754 mmHg 84%
    22:00 +16°C° 0 mm 5 m/S 755 mmHg 85%
    23:00 +16°C° 0 mm 5 m/S 755 mmHg 83%

    25 August, Samstag

    Zeit Temperatur Niederschläge Wind Luftdruck Luftfeuchtigkeit
    00:00 +16°C° 0 mm 5 m/S 755 mmHg 81%
    01:00 +17°C° 0 mm 4 m/S 755 mmHg 80%
    02:00 +15°C° 0,1 mm 5 m/S 755 mmHg 80%
    03:00 +15°C° 0,1 mm 5 m/S 756 mmHg 80%
    04:00 +15°C° 0,1 mm 5 m/S 756 mmHg 80%
    05:00 +14°C° 0,1 mm 5 m/S 756 mmHg 79%
    06:00 +14°C° 0,1 mm 5 m/S 756 mmHg 78%
    07:00 +14°C° 0,1 mm 6 m/S 756 mmHg 77%
    08:00 +15°C° 0 mm 6 m/S 757 mmHg 70%
    09:00 +16°C° 0 mm 6 m/S 757 mmHg 63%
    10:00 +17°C° 0 mm 6 m/S 757 mmHg 56%
    11:00 +19°C° 0 mm 6 m/S 757 mmHg 51%
    12:00 +20°C° 0 mm 5 m/S 757 mmHg 46%
    13:00 +21°C° 0 mm 5 m/S 757 mmHg 42%
    14:00 +20°C° 0 mm 5 m/S 757 mmHg 41%
    15:00 +20°C° 0 mm 4 m/S 757 mmHg 40%
    16:00 +20°C° 0 mm 3 m/S 757 mmHg 40%
    17:00 +19°C° 0 mm 3 m/S 757 mmHg 43%
    18:00 +18°C° 0 mm 2 m/S 757 mmHg 47%
    19:00 +17°C° 0 mm 2 m/S 757 mmHg 50%
    20:00 +17°C° 0 mm 2 m/S 757 mmHg 51%
    21:00 +16°C° 0 mm 2 m/S 757 mmHg 52%
    22:00 +16°C° 0 mm 2 m/S 758 mmHg 53%
    23:00 +16°C° 0 mm 2 m/S 758 mmHg 54%

    26 August, Sonntag

    Zeit Temperatur Niederschläge Wind Luftdruck Luftfeuchtigkeit
    00:00 +16°C° 0 mm 3 m/S 758 mmHg 55%
    01:00 +14°C° 0 mm 3 m/S 758 mmHg 56%
    02:00 +14°C° 0 mm 3 m/S 758 mmHg 59%
    03:00 +14°C° 0 mm 3 m/S 758 mmHg 61%
    04:00 +14°C° 0 mm 3 m/S 758 mmHg 63%
    05:00 +14°C° 0,1 mm 3 m/S 758 mmHg 66%
    06:00 +14°C° 0,1 mm 3 m/S 759 mmHg 69%
    07:00 +14°C° 0,1 mm 4 m/S 759 mmHg 72%
    08:00 +15°C° 0,1 mm 4 m/S 759 mmHg 68%
    09:00 +17°C° 0,1 mm 3 m/S 759 mmHg 64%
    10:00 +18°C° 0,1 mm 3 m/S 759 mmHg 60%
    11:00 +19°C° 0,1 mm 4 m/S 759 mmHg 56%
    12:00 +20°C° 0,1 mm 4 m/S 759 mmHg 52%
    13:00 +20°C° 0,1 mm 4 m/S 759 mmHg 49%
    14:00 +20°C° 0 mm 4 m/S 759 mmHg 49%
    15:00 +20°C° 0 mm 4 m/S 759 mmHg 49%
    16:00 +20°C° 0 mm 4 m/S 759 mmHg 50%
    17:00 +18°C° 0,1 mm 4 m/S 759 mmHg 57%
    18:00 +17°C° 0,1 mm 4 m/S 759 mmHg 64%
    19:00 +14°C° 0,1 mm 4 m/S 759 mmHg 72%
    20:00 +14°C° 0,1 mm 4 m/S 760 mmHg 74%
    21:00 +13°C° 0,1 mm 4 m/S 760 mmHg 76%
    22:00 +13°C° 0,1 mm 4 m/S 760 mmHg 79%
    23:00 +12°C° 0 mm 4 m/S 760 mmHg 79%
    Mehr zeigen